Weather History for Blythe, CA

Change the Weather History Date:

Monday, August 18, 2014

  Actual Average Record
Temperature  
Mean Temperature 90 °F -  
Max Temperature 98 °F 105 °F 114 °F (2011)
Min Temperature 82 °F 80 °F 66 °F (1976)
Cooling Degree Days 24    
Growing Degree Days 40 (Base 50)    
Moisture  
Dew Point 68 °F    
Average Humidity 52    
Maximum Humidity 70    
Minimum Humidity 31    
Precipitation  
Precipitation 0.03 in - - ()
Sea Level Pressure  
Sea Level Pressure 29.78 in    
Wind  
Wind Speed 15 mph (South)    
Max Wind Speed 26 mph    
Max Gust Speed 32 mph    
Visibility 10 miles    
Events Rain , Thunderstorm    
Averages and records for this station are not official NWS values.
T = Trace of Precipitation, MM = Missing Value Source: NWS Daily Summary

Daily Weather History Graph

Daily Weather History Graph

Search for Another Location

Airport:

Trip Planner

Search our weather history database for the weather conditions in past years. The results will help you decide how hot, cold, wet, or windy it might be!

Date:

Astronomy

Aug. 18, 2014 Rise Set
Actual Time 6:03 AM PDT 7:21 PM PDT
Civil Twilight 5:37 AM PDT 7:47 PM PDT
Nautical Twilight 5:05 AM PDT 8:18 PM PDT
Astronomical Twilight 4:33 AM PDT 8:51 PM PDT
Moon 12:17 AM PDT (8/18) 2:24 PM PDT (8/18)
Length of Visible Light 14h 10m
Length of Day
13h 18m
Last Quarter, 37% of the Moon is Illuminated
Aug 18
Last Quarter
Aug 25
New
Sep 2
First Quarter
Sep 8
Full
Sep 15
Last Quarter

Hourly Weather History & Observations

Time (PDT) Temp. Heat Index Dew Point Humidity Pressure Visibility Wind Dir Wind Speed Gust Speed Precip Events Conditions
12:52 AM 93.0 °F 94.6 °F 64.0 °F 38% 29.74 in 10.0 mi SE 26.5 mph 32.2 mph N/A   Partly Cloudy
1:52 AM 90.0 °F 91.7 °F 64.9 °F 43% 29.75 in 10.0 mi SE 16.1 mph - N/A   Clear
2:52 AM 88.0 °F 91.4 °F 68.0 °F 51% 29.76 in 10.0 mi South 16.1 mph - N/A   Clear
3:52 AM 87.1 °F 89.2 °F 66.0 °F 49% 29.78 in 10.0 mi South 11.5 mph - N/A   Scattered Clouds
4:07 AM 87.1 °F 89.2 °F 66.0 °F 49% 29.81 in 10.0 mi SSE 12.7 mph - N/A Thunderstorm Mostly Cloudy
4:26 AM 86.0 °F 90.1 °F 69.1 °F 57% 29.81 in 10.0 mi South 16.1 mph 20.7 mph 0.00 in Rain Light Rain
4:47 AM 82.4 °F 87.2 °F 71.6 °F 70% 29.81 in 10.0 mi SW 9.2 mph - 0.01 in Rain , Thunderstorm Light Thunderstorms and Rain
4:52 AM 82.0 °F 86.3 °F 71.1 °F 69% 29.80 in 10.0 mi WSW 10.4 mph - 0.01 in Rain , Thunderstorm Light Thunderstorms and Rain
5:02 AM 82.9 °F 87.0 °F 70.0 °F 65% 29.81 in 10.0 mi SW 13.8 mph - 0.00 in Thunderstorm Mostly Cloudy
5:28 AM 82.9 °F 87.0 °F 70.0 °F 65% 29.82 in 10.0 mi WSW 10.4 mph - 0.00 in   Scattered Clouds
5:52 AM 82.0 °F 85.9 °F 70.0 °F 67% 29.80 in 10.0 mi Calm Calm - 0.02 in   Scattered Clouds
6:52 AM 82.9 °F 88.0 °F 72.0 °F 69% 29.82 in 10.0 mi South 5.8 mph - N/A   Clear
7:52 AM 86.0 °F 90.7 °F 70.0 °F 59% 29.84 in 10.0 mi SSE 12.7 mph - N/A   Clear
8:52 AM 87.1 °F 92.8 °F 71.1 °F 59% 29.83 in 10.0 mi South 11.5 mph - N/A   Clear
9:52 AM 89.1 °F 92.9 °F 68.0 °F 50% 29.84 in 10.0 mi South 6.9 mph - N/A   Clear
10:52 AM 90.0 °F 92.8 °F 66.9 °F 46% 29.83 in 10.0 mi South 8.1 mph - N/A   Clear
11:52 AM 93.0 °F 95.9 °F 66.0 °F 41% 29.81 in 10.0 mi South 5.8 mph - N/A   Clear
12:52 PM 96.1 °F 98.8 °F 64.9 °F 36% 29.79 in 10.0 mi South 4.6 mph - N/A   Clear
1:52 PM 97.0 °F 98.3 °F 63.0 °F 32% 29.77 in 10.0 mi South 19.6 mph - N/A   Clear
2:52 PM 97.0 °F 97.8 °F 62.1 °F 31% 29.75 in 10.0 mi SSW 18.4 mph - N/A   Clear
3:52 PM 96.1 °F 99.3 °F 66.0 °F 37% 29.73 in 10.0 mi South 18.4 mph - N/A   Clear
4:52 PM 95.0 °F 99.0 °F 66.9 °F 40% 29.72 in 10.0 mi South 15.0 mph - N/A   Clear
5:52 PM 95.0 °F 99.5 °F 68.0 °F 41% 29.71 in 10.0 mi South 16.1 mph - N/A   Clear
6:52 PM 93.9 °F 100.3 °F 70.0 °F 46% 29.71 in 10.0 mi South 15.0 mph - N/A   Clear
7:52 PM 90.0 °F 96.9 °F 72.0 °F 55% 29.73 in 10.0 mi South 13.8 mph - N/A   Clear
9:52 PM 88.0 °F 93.8 °F 71.1 °F 57% 29.75 in 10.0 mi South 15.0 mph - N/A   Clear
10:52 PM 87.1 °F 93.6 °F 72.0 °F 61% 29.75 in 10.0 mi South 11.5 mph - N/A   Clear
11:52 PM 86.0 °F 93.0 °F 73.0 °F 65% 29.75 in 10.0 mi South 11.5 mph - N/A   Clear